Regional Weather Roundup
Issued by NWS

Home | Current Version | Previous Version | Text Only | Print | Product List | Glossary On
Versions: 1 2 3 4 5 6 7 8 9 10 11 12 13 14 15 16 17 18 19 20 21 22 23 24 25 26 27 28 29 30 31 32 33 34 35 36 37 38 39 40 41 42 43 44 45 46 47 48 49 50
000
ASUS44 KJAN 040510
RWRMS

MISSISSIPPI HOURLY WEATHER ROUNDUP
NATIONAL WEATHER SERVICE JACKSON MS
1200 AM CDT FRI SEP 04 2015

NOTE: "FAIR: INDICATES FEW OR NO CLOUDS BELOW 12,000 FEET WITH NO
SIGNIFICANT WEATHER AND/OR OBSTRUCTIONS TO VISIBILITY.

MSZ001>002-007>008-010>013-018>021-025>028-034>036-040600-
NORTHWEST MISSISSIPPI

CITY           SKY/WX    TMP DP  RH WIND       PRES   REMARKS
CLARKSDALE       N/A     75  70  83 E3        29.95S
CLEVELAND      FAIR      77  73  86 NE3       29.93S
GREENWOOD      CLEAR     79  68  69 E5        29.93S
GREENVILLE     PTCLDY    76  70  82 E5        29.92S
OLIVE BRANCH   CLEAR     75  75 100 CALM      29.96S
OXFORD         FAIR      72  68  88 CALM      29.98S
TUNICA           N/A    N/A N/A N/A MISG        N/A
$$

MSZ003>006-009-014>017-022>024-029>033-037>039-040600-
NORTHEAST MISSISSIPPI

CITY           SKY/WX    TMP DP  RH WIND       PRES   REMARKS
COLUMBUS AFB   CLEAR     73  70  90 CALM      29.94S
CORINTH        FAIR      72  70  94 W3        29.95F
GOLDN TRIANGLE CLEAR     73  66  78 CALM      29.95R
STARKVILLE     FAIR      72  68  88 CALM      29.96S
TUPELO         CLEAR     75  71  87 CALM      29.95S
$$

MSZ040-058-040600-
CENTRAL MISSISSIPPI

CITY           SKY/WX    TMP DP  RH WIND       PRES   REMARKS
JACKSON INTL   CLEAR     78  69  73 S5        29.94S
JACKSON HAWKNS CLEAR     79  69  71 SE5       29.95R
MERIDIAN KEY   CLEAR     75  72  90 CALM      29.95S
MERIDIAN NAS   CLEAR     74  71  91 CALM      29.95S
VICKSBURG      CLEAR     75  70  84 CALM      29.93S
$$

MSZ059>079-040600-
SOUTH MISSISSIPPI

CITY           SKY/WX    TMP DP  RH WIND       PRES   REMARKS
BROOKHAVEN       N/A     72  70  94 CALM      29.98R
HATTIESBURG    CLEAR     76  72  87 CALM      29.97S
MCCOMB         CLEAR     74  74 100 CALM      29.96S
NATCHEZ        CLEAR     75  70  83 CALM      29.95S
PINE BELT      CLEAR     75  70  83 SW5       29.98S
$$

MSZ080>082-040600-
COASTAL MISSISSIPPI

CITY           SKY/WX    TMP DP  RH WIND       PRES   REMARKS
BILOXI         PTCLDY    79  73  83 SW6       29.95S
PASCAGOULA     CLEAR     72  71  97 CALM      29.96S
GULFPORT       CLEAR     76  73  91 CALM      29.95S
$$



USA.gov is the U.S. government's official web portal to all federal, state and local government web resources and services.